Regional Weather Roundup
Issued by NWS Charleston, SC

Current Version | Previous Version | Graphics & Text | Print | Product List | Glossary On
Versions: 1 2 3 4 5 6 7 8 9 10 11 12 13 14 15 16 17 18 19 20 21 22 23 24 25 26 27 28 29 30 31 32 33 34 35 36 37 38 39 40 41 42 43 44 45 46 47 48 49 50
000
ASUS42 KCHS 240525
RWRCHS

REGIONAL WEATHER ROUNDUP
NATIONAL WEATHER SERVICE CHARLESTON SC
100 AM EDT THU JUL 24 2014

NOTE: "FAIR" INDICATES FEW OR NO CLOUDS BELOW 12,000 FEET WITH NO
SIGNIFICANT WEATHER AND/OR OBSTRUCTIONS TO VISIBILITY.

NOT ALL STATIONS ARE QUALITY CONTROLLED BY THE NATIONAL
WEATHER SERVICE. USE DATA WITH CAUTION...ESPECIALLY
DEWPOINT OBSERVATIONS.

SCZ027-030-031-034>040-042>050-240600-
...SOUTH CAROLINA...

CITY           SKY/WX    TMP DP  RH WIND       PRES   REMARKS
N CHARLESTON   PTCLDY    79  75  87 SW5       29.99R
WATERFRONT PRK   N/A     82 N/A N/A SW8         N/A
FORT JOHNSON   NOT AVBL
MOUNT PLEASANT FAIR      81  77  89 CALM      29.99S
JOHNS ISLAND   PTCLDY    82  73  74 SW3       29.99S
PINOPOLIS        N/A     81  75  83 SW5       29.90S
MONCKS CORNER    N/A     79  79 100 SW7       29.98S
SUMMERVILLE    FAIR      77  77 100 S3        30.00R
BEAUFORT MCAS  PTCLDY    81  77  88 SW5       29.99R
BEAUFORT ARPT  FAIR      81  79  94 SW5       29.99S
HILTON HEAD IS PTCLDY    82  79  89 S6        30.01R HX  93
GEORGETOWN     NOT AVBL
WALTERBORO     PTCLDY    79 N/A N/A SW6       30.00S
ORANGEBURG     PTCLDY    77  73  87 S8        29.98S
BARNWELL       FAIR      79  75  89 SW3       30.00R
AIKEN          FAIR      73  73 100 SW5       30.02S
MANNING        FAIR      81  81 100 SW7       29.98R HX  91
KINGSTREE      NOT AVBL
COLUMBIA       PTCLDY    81  72  74 S5        29.96S
SUMTER         CLEAR     78  75  92 SW9       29.96R
FLORENCE       CLEAR     78  74  87 SW8       29.96R
MYRTLE BEACH   PTCLDY    79  73  83 SW6       29.97S
N MYRTLE BEACH PTCLDY    80  74  81 SW9       29.97R

$$

GAZ063-065-086>088-099>101-113>116-118-119-134-136>141-150-240600-
...GEORGIA...

CITY           SKY/WX    TMP DP  RH WIND       PRES   REMARKS
SAVANNAH ARPT  PTCLDY    80  76  87 SW5       30.00R
HUNTER AAF     PTCLDY    81  78  92 VRB7      29.98S
FORT STEWART   MOCLDY    79  76  89 VRB1      30.00R
STATESBORO     NOT AVBL
SYLVANIA       CLEAR     78  78  98 CALM      30.01S
CLAXTON        FAIR      79  79 100 CALM      30.00S
THOMSON        CLEAR     78  78  99 CALM      30.03S
AUGUSTA-BUSH   CLEAR     73  71  93 CALM      29.98R
AUGUSTA-DANIEL CLEAR     79  70  74 CALM      29.99S
SWAINSBORO     FAIR      77  77 100 CALM      30.01S
VIDALIA          N/A     77  72  83 CALM      30.01S
ALMA           PTCLDY    78  71  79 S3        30.01R
WAYCROSS       CLEAR     81  76  84 CALM      30.02S
JESUP          NOT AVBL
BRUNSWICK      PTCLDY    82  73  74 CALM      30.01S
SAINT SIMONS   PTCLDY    82  76  81 SW7       30.00F

$$

SCZ027-028-034-036>038-045-046-048>050-GAZ119-141-240600-
...LAKE AND SUPPLEMENTAL COASTAL OBSERVATIONS...

STATION/POSITION TIME  TEMP    WIND        PRES    WAVE   SWELL
                       AIR SEA DIR/SP/G            HT/PER HT/PER/DIR
                 (UTC) (F)     (DEG/KT/KT) (MB)    (FT/S) (FT/S/D)
UPR LAKE MARION  NOT AVBL
WINYAH BAY       0400   79     230/  4     1015.0R
LAKE MURRAY      0400   82     230/  8/ 11 1013.9S
ACE BASIN NERRS  0400   81        CALM     1015.0S
FORT PULASKI     0500   82     190/  6/  8 1016.0R
SAPELO ISLAND    0400   82     190/  6     1016.0S

$$

ANZ835-935-AMZ111-154-330-350-352-354-374-450-454-472-240600-
...C-MAN AND BUOY OBSERVATIONS...

STATION/POSITION TIME  TEMP    WIND        PRES    WAVE   SWELL
                       AIR SEA DIR/SP/G            HT/PER HT/PER/DIR
                 (UTC) (F)     (DEG/KT/KT) (MB)    (FT/S) (FT/S/D)
FOLLY BEACH CMAN 0500   82     210/ 17/ 18 1016.0R
BUOY 41004       0500   82 82  220/ 14/ 16 1015.1R   3/ 6   2/ 6
BUOY 41008       0500   83 84  210/ 17/ 21 1015.8R   3/ 4   2/110/ 8
5E ST. MARYS GA  0500      84                N/A     3/ 4
FRYING PAN BUOY  NOT AVBL
BUOY 41025       0500          VRB 17/ 21  1013.4F   5/ 4   2/160/ 9
CAPE LOOKOUT NC  0500   80     230/ 12/ 16 1014.3R
BUOY 41002       0436   82 82  210/ 17/ 21 1017.8F   5/ 6   2/ 90/ 9
BUOY 41010       0500   82 83  180/ 12/ 14 1017.8R   3/ 7   2/120/ 7
BUOY 41012       NOT AVBL
ST AUGUSTINE FL  0500   80     210/  7/  9 1017.2F
CAPERS NEARSHORE 0400   82     230/ 14/ 17   N/A
FRIPP NEARSHORE  NOT AVBL


$$


USA.gov is the U.S. government's official web portal to all federal, state and local government web resources and services.